Weather in Lauterbrunnen

Switzerland     46°35′43″N   7°54′26″E
temp.,
°C
wind,
m/s
gust,
m/s
humid.,
%
clouds,
%
prec.,
mm/h
press.,
hPa
HPBL,
m
28 january, fri
fri2801:00−7nw434582 0.1 103323
04:00−11nw337362 0.0 103615
07:00−9nw4492100 0.1 1035180
10:00−10nw338957 0.1 1038132
13:00−7nw444795 0.1 1036320
16:00−9nw336781 0.0 103737
19:00−11nw233274 0.0 103914
22:00−11nnw333115 0.0 104016
29 january, sat
sat2901:00−9nnw335297 0.0 103721
04:00−7nnw336489 0.0 103424
07:00−8nnw335273 0.0 103517
10:00−5nw335821 0.0 103354
13:00−3nw33595 0.0 1031185
16:00−4nw336728 0.0 103236
19:00−10nnw33411 0.0 103816
22:00−8nw238431 0.0 103515
30 january, sun
sun3001:00−8nnw33863 0.0 103519
04:00−8nw33836 0.0 103317
07:00−9nnw438738 0.0 103440
10:00−4nnw33663 0.0 103051
13:00−2nw33671 0.0 1026119
16:00−3nw32600 0.0 102619
19:00−7nnw23210 0.0 102711
22:00−6nw12240 0.0 102511
31 january, mon
mon3101:00−6wnw123216 0.0 102110
04:00−6nw3334100 0.0 101911
07:00−8wnw334898 0.0 102015
10:00−9wnw458059 0.0 1020121
13:00−7wnw6893100 1.1 10151058
16:00−11nw61394100 3.3 10181607
19:00−12nw61196100 8.2 10221078
22:00−13nw679698 3.0 1023503
1 february, tue
tue101:00−14nw5597100 4.5 1025303
04:00−14nw5598100 1.8 1026295
07:00−15nw449798 2.6 102986
10:00−13nw449198 0.1 1029263
13:00−11wnw448498 0.1 1026330
16:00−10wnw4493100 0.2 1025214
19:00−9w4496100 4.3 1024140
22:00−8wnw4596100 8.5 1021172